Create Custom Reports and Graphics: Custom Report

Belmont 8000'

Squaw Valley

8/30/26 7:45 PM (-07:00)
Updated Every 15 Minutes
Temp 55.3 °F   3.1
RH 53 %   5
Dew Pt 38.3 °F   5.2
Wet Bulb 46.0 °F   3.5
Wind Dir WSW | 247 °
Wind Spd 2.9 mph   7.9
Wind Gust 7.3 mph   10.4
WindChill 55.7 °F   6.4
Daily Min Temp 49.0 °F   0.7
Daily Max Temp 68.6 °F   5.3
Latest Rain 0.00 In
Daily Rain 0.00 In

Last 24 Hours

OV-Belmont 8000'

Hourly Data | America/Los_Angeles
as of 8/30/26 7:53 PM PDT
Date & Time Temp (°F) RH (%) Dew Pt (°F) Wet Bulb (°F) Wind Dir (°) Wind Spd (mph) Wind Gust (mph) WindChill (°F) Latest Rain (In) Daily Min Temp (°F) Daily Max Temp (°F) Daily Rain (In)
8/30/26 - 1900 58.0 47 37.9 46.9 SSW | 211 6.9 17.0 60.2 0.00 49.0 68.6 0.00
8/30/26 - 1800 63.4 41 39.3 49.7 SSW | 213 7.8 18.1 64.8 0.00 49.0 68.6 0.00
8/30/26 - 1700 65.1 37 37.9 49.8 SSW | 199 7.1 16.7 66.3 0.00 49.0 68.6 0.00
8/30/26 - 1600 67.7 32 37.1 50.5 SSW | 203 7.2 17.3 67.3 0.00 49.0 68.6 0.00
8/30/26 - 1500 67.2 32 36.3 50.0 SSW | 195 7.9 18.2 65.6 0.00 49.0 67.6 0.00
8/30/26 - 1400 65.4 31 33.7 48.3 SSW | 210 9.1 18.5 64.9 0.00 49.0 66.8 0.00
8/30/26 - 1300 65.3 30 32.8 47.9 S | 184 8.0 18.0 64.5 0.00 49.0 66.8 0.00
8/30/26 - 1200 65.2 28 31.5 47.4 SSE | 167 7.1 15.4 63.8 0.00 49.0 66.2 0.00
8/30/26 - 1100 60.9 28 27.5 44.3 S | 179 8.3 16.3 59.0 0.00 49.0 63.0 0.00
8/30/26 - 1000 56.5 32 27.1 42.2 S | 169 13.1 20.1 55.0 0.00 49.0 56.6 0.00
8/30/26 - 0900 54.7 34 27.0 41.4 S | 177 12.8 24.1 50.4 0.00 49.0 54.9 0.00
8/30/26 - 0800 52.2 32 22.9 38.9 S | 181 8.7 17.0 49.4 0.00 49.0 52.7 0.00
8/30/26 - 0700 51.7 29 20.2 37.9 S | 174 8.7 15.8 47.6 0.00 49.0 51.8 0.00
8/30/26 - 0600 51.2 30 20.7 37.8 SSE | 168 11.1 21.3 47.0 0.00 49.0 51.5 0.00
8/30/26 - 0500 50.9 35 24.4 38.7 SSE | 166 9.6 22.1 46.6 0.00 49.0 51.3 0.00
8/30/26 - 0400 50.2 43 28.3 39.7 S | 170 7.0 18.5 47.4 0.00 49.0 51.3 0.00
8/30/26 - 0300 50.2 40 26.8 39.2 SSE | 165 10.4 20.2 46.6 0.00 50.0 51.3 0.00
8/30/26 - 0200 50.9 37 25.4 39.1 S | 172 12.6 21.4 46.1 0.00 50.1 51.3 0.00
8/30/26 - 0100 50.3 37 25.1 38.7 S | 176 11.0 22.2 46.8 0.00 50.1 51.3 0.00
8/30/26 - 0000 51.2 37 25.5 39.2 S | 169 12.8 23.4 47.1 0.00 48.3 63.4 0.00
8/29/26 - 2300 51.2 42 29.0 40.4 SSE | 162 15.2 22.1 46.2 0.00 48.3 63.4 0.00
8/29/26 - 2200 51.2 54 35.0 42.8 SSE | 160 13.0 24.8 47.3 0.00 48.3 63.4 0.00
8/29/26 - 2100 51.4 48 32.2 41.7 SSW | 198 5.2 16.8 49.8 0.00 48.3 63.4 0.00
8/29/26 - 2000 51.6 51 34.1 42.6 SSW | 205 9.7 19.2 50.0 0.00 48.3 63.4 0.00
8/29/26 - 1900 53.5 47 33.7 43.2 S | 187 7.1 18.2 55.7 0.00 48.3 63.4 0.00
Max 67.7 54 39.3 50.5 - 15.2 24.8 67.3 0.00 50.1 68.6 0.00
Avg 56.3 37 30.1 43.1 - 9.5 19.3 54.2 0.00 - - -
Min 50.2 28 20.2 37.8 - 5.2 15.4 46.1 0.00 48.3 51.3 0.00
Total - - - - - - - - 0.00 - - -

Last 30 Days

OV-Belmont 8000'

Daily Data | America/Los_Angeles
as of 8/30/26 7:53 PM PDT
Date Daily Max Temp (°F) Time of Max Temp Daily Min Temp (°F) Time of Min Temp Daily Rain (In) Season Precip (In) Wind Spd (mph) Daily Max Wind (mph) Time of Max Wind Max Wind Dir (°) Daily Max RH (%) Daily Min RH (%) Wet Bulb (°F) WetB Hrs <28F (hrs) MinBV Day (V)
8/29/26 63.4 1511 48.3 0641 0.00 102.80 9.9 29.4 1106 SE | 142 92 32 46.2 0.0 12.7
8/28/26 56.2 0149 48.4 1047 0.11 102.80 8.6 18.6 2204 S | 174 98 43 47.9 0.0 13.2
8/27/26 71.3 1303 55.4 2357 0.00 102.70 9.4 27.0 0208 SW | 231 55 23 46.5 0.0 13.0
8/26/26 72.4 1510 58.2 0359 0.00 102.70 10.5 34.9 1358 SW | 226 64 28 50.4 0.0 13.0
8/25/26 71.2 1651 55.6 0348 0.00 102.70 9.2 31.0 0927 SSW | 203 51 33 49.0 0.0 13.0
8/24/26 73.5 1351 57.4 2302 0.00 102.70 9.4 30.3 1405 WSW | 245 53 34 49.9 0.0 13.0
8/23/26 72.6 1337 57.4 0236 0.00 102.70 10.6 27.1 1409 NNW | 329 57 29 49.7 0.0 12.6
8/22/26 70.8 1242 57.6 0704 0.00 102.70 8.5 30.2 1426 SSW | 202 51 32 48.6 0.0 12.6
8/21/26 74.4 1241 59.4 2333 0.00 102.70 11.8 26.1 1956 WSW | 240 49 26 49.3 0.0 13.0
8/20/26 75.3 1424 60.1 2030 0.00 102.70 11.3 28.3 1457 W | 280 41 20 47.9 0.0 13.0
8/19/26 77.0 1346 57.9 0626 0.00 102.70 6.7 22.9 2247 SSW | 213 45 21 49.6 0.0 13.0
8/18/26 74.9 1709 57.0 0130 0.00 102.70 6.7 20.0 1320 SW | 231 48 21 48.4 0.0 13.0
8/17/26 70.9 1147 55.6 0557 0.00 102.70 9.4 33.8 1533 SSW | 196 54 32 48.4 0.0 13.0
8/16/26 72.0 1442 53.7 0051 0.00 102.70 8.9 23.5 0442 SSE | 168 52 25 46.2 0.0 13.0
8/15/26 65.5 1623 50.6 0703 0.00 102.70 12.3 29.8 0216 NNE | 20 71 31 45.3 0.0 13.1
8/14/26 64.0 1525 49.5 0341 0.00 102.70 11.5 27.8 0516 SSW | 207 79 46 47.6 0.0 13.1
8/13/26 63.0 1254 52.0 2356 0.00 102.70 12.0 33.0 1508 WSW | 242 76 55 49.9 0.0 13.1
8/12/26 69.3 1640 57.4 2359 0.00 102.70 11.3 30.6 1231 SW | 227 64 19 48.9 0.0 13.0
8/11/26 77.2 1513 61.3 2211 0.00 102.70 11.9 25.0 0303 SSE | 151 35 16 47.7 0.0 13.0
8/10/26 77.7 1154 63.4 2106 0.00 102.70 10.4 26.5 1400 SW | 234 42 19 49.9 0.0 13.0
8/9/26 83.4 1450 65.7 2111 0.00 102.70 5.9 19.9 1522 NW | 309 36 16 50.6 0.0 13.0
8/8/26 85.3 1608 66.8 2357 0.00 102.70 5.3 17.7 1845 WNW | 289 40 21 53.2 0.0 13.0
8/7/26 87.8 1633 66.5 0124 0.00 102.70 5.9 19.9 1447 NNW | 348 39 17 52.6 0.0 13.0
8/6/26 80.2 1523 64.3 0359 0.00 102.70 9.7 22.6 1424 WSW | 251 33 15 50.2 0.0 13.0
8/5/26 80.7 1653 58.9 0609 0.00 102.70 8.0 19.1 1515 SW | 225 43 11 47.9 0.0 13.0
8/4/26 80.5 1446 58.7 0448 0.00 102.70 5.0 18.3 1805 W | 259 39 11 48.4 0.0 13.0
8/3/26 81.3 1608 55.3 0610 0.00 102.70 3.7 17.3 1937 WNW | 293 41 13 47.7 0.0 13.0
8/2/26 78.2 1438 57.2 2359 0.00 102.70 6.7 19.5 1502 WSW | 253 42 13 47.0 0.0 13.0
8/1/26 80.7 1652 61.6 0501 0.00 102.70 7.6 20.1 1508 WSW | 253 34 9 47.0 0.0 13.0
7/31/26 77.8 1422 57.4 0457 0.00 102.70 8.2 21.8 1212 WSW | 252 32 11 46.2 0.0 13.0
Max 87.8 - 66.8 - 0.11 102.80 12.3 34.9 - - 98 55 53.2 0.0 13.2
Avg - - - - - - 8.9 - - - - - 48.6 - -
Min 56.2 - 48.3 - 0.00 102.70 3.7 17.3 - - 32 9 45.3 0.0 12.6
Calm: 0.0%
Calm: 0.0%